Visibility
15.0 15.0 15.0 15.0 15.0 15.0 15.0 15.0 14.6 15.0 15.0 15.0 0.1 0.7 0.9 1.2 0.4 0.7 15.0 15.0 15.0 8.6 8.6 15.0 15.0 15.0 15.0 15.0 15.0 15.0 13.6 9.9 15.0 8.8 12.7 0.3 0.2 0.2 0.4 0.9 1.3 15.0 15.0 15.0
15.0 15.0 15.0 15.0 15.0 15.0 15.0 15.0 15.0 15.0 15.0 15.0 5.8 1.1 1.4 2.5 0.2 4.2 15.0 14.9 15.0 15.0 14.9 13.8 3.4 13.6 14.8 15.0 15.0 15.0 15.0 15.0 11.3 15.0 15.0 15.0 0.8 0.2 0.9 4.7 15.0 15.0 15.0 15.0
15.0 15.0 15.0 15.0 14.6 11.6 11.1 13.2 15.0 15.0 15.0 2.3 0.1 0.2 2.9 4.5 12.2 2.2 1.2 0.9 1.2 0.5 0.3 0.6 0.3 0.1 0.2 6.3 9.1 15.0 15.0 14.7 15.0 14.9 12.5 9.7 14.1 4.7 5.2 0.9 14.6 15.0 14.9 15.0
15.0 15.0 11.2 15.0 15.0 9.2 0.1 0.1 0.3 0.4 0.0 0.1 0.1 0.2 0.5 15.0 3.8 0.4 0.7 2.0 0.9 0.3 1.2 0.2 0.1 0.1 0.1 0.2 15.0 14.3 15.0 15.0 6.2 12.1 2.0 4.4 2.9 2.7 6.5 6.3 7.3 1.4 10.2 14.8
15.0 9.8 15.0 15.0 8.6 0.1 0.1 0.1 0.4 0.1 0.1 0.1 2.0 15.0 1.6 2.6 1.6 0.1 0.2 0.3 0.2 0.1 0.1 3.2 2.8 0.1 0.1 0.3 4.6 14.9 0.6 1.0 0.4 1.9 6.1 1.7 0.5 0.2 0.6 6.0 6.0 13.1 15.0 15.0
4.2 13.0 1.7 2.2 15.0 0.1 0.0 0.1 0.1 0.1 0.1 1.2 3.7 14.6 0.5 0.3 0.3 0.1 0.2 0.4 0.2 0.1 0.9 14.8 0.9 0.4 1.1 1.6 15.0 0.5 0.2 0.1 0.1 0.2 0.3 0.2 0.2 0.3 0.5 1.7 2.4 2.1 1.0 1.7
15.0 13.3 15.0 0.4 0.9 0.0 0.0 0.1 0.1 0.2 0.2 0.1 2.1 2.2 0.2 0.2 0.2 0.2 0.2 0.3 0.1 0.2 0.7 0.4 0.6 1.1 5.1 11.7 0.3 0.1 0.1 0.1 1.2 0.3 0.1 0.1 0.1 0.1 0.2 0.8 1.2 0.9 0.6 0.6
0.1 0.1 0.3 0.4 0.3 0.1 0.1 0.1 0.2 0.2 0.1 0.1 0.4 0.3 0.2 0.1 0.1 0.2 3.0 0.5 0.2 0.3 0.2 0.3 0.6 6.6 0.9 0.2 0.1 0.7 3.3 1.7 0.5 0.1 0.1 0.1 0.2 0.1 0.1 0.1 0.1 0.1 0.1 0.1
0.1 0.1 0.1 0.1 0.1 0.1 0.2 0.2 0.1 0.2 0.3 0.6 1.1 0.2 0.1 0.1 0.1 0.1 0.1 0.1 0.1 0.2 0.3 0.7 3.9 4.2 1.6 0.6 12.2 8.3 15.0 2.4 0.8 2.8 2.5 5.1 6.1 0.7 1.7 13.9 3.9 0.2 0.1 0.1
0.1 0.1 0.1 0.1 0.4 0.3 0.3 0.2 0.2 0.2 0.9 0.7 0.2 0.3 0.2 0.1 0.2 0.6 0.4 0.2 0.8 11.3 1.9 0.9 1.5 3.3 2.2 13.8 15.0 15.0 15.0 15.0 13.2 4.5 9.5 15.0 15.0 15.0 15.0 10.9 2.3 0.4 0.3 0.2
0.1 0.1 2.4 10.5 1.4 0.2 0.1 0.2 0.4 0.2 0.3 0.3 0.5 0.4 3.7 3.0 4.1 2.8 6.1 8.6 15.0 8.2 6.4 4.7 15.0 15.0 15.0 15.0 15.0 15.0 15.0 15.0 15.0 10.1 1.4 1.4 0.3 0.4 2.3 0.5 2.4 0.5 0.2 1.1
1.0 0.3 12.3 0.7 0.4 0.7 1.1 0.4 0.4 1.1 0.3 0.2 1.2 2.0 14.9 1.9 2.2 4.0 0.5 3.3 15.0 15.0 15.0 15.0 15.0 15.0 15.0 15.0 15.0 15.0 15.0 15.0 15.0 15.0 15.0 11.3 12.6 2.1 6.7 1.1 12.8 15.0 15.0 6.7
1.8 1.0 3.6 1.9 5.6 11.0 8.9 0.6 0.6 0.6 1.8 1.0 0.6 10.7 15.0 3.1 1.6 0.7 14.8 15.0 15.0 15.0 15.0 15.0 15.0 15.0 15.0 15.0 15.0 15.0 5.7 12.0 15.0 15.0 15.0 15.0 15.0 7.9 7.1 12.7 15.0 15.0 15.0 15.0
15.0 12.6 3.7 0.8 0.7 4.3 3.4 0.4 1.1 0.6 1.1 1.9 8.9 15.0 15.0 15.0 15.0 15.0 15.0 15.0 15.0 15.0 15.0 15.0 15.0 15.0 15.0 15.0 15.0 15.0 14.7 8.4 12.3 13.9 15.0 14.2 14.3 12.5 15.0 7.6 4.7 4.3 14.3 15.0
5.5 13.3 14.3 10.6 3.8 0.2 1.1 0.6 0.3 0.3 0.9 0.8 10.8 15.0 15.0 15.0 15.0 15.0 15.0 15.0 15.0 15.0 15.0 15.0 15.0 14.4 15.0 15.0 15.0 15.0 15.0 6.1 4.3 4.3 10.0 15.0 15.0 15.0 15.0 15.0 15.0 15.0 15.0 15.0
15.0 15.0 15.0 10.5 2.5 1.3 6.0 5.0 2.1 0.3 0.2 0.3 1.7 4.6 15.0 15.0 15.0 15.0 15.0 15.0 15.0 15.0 15.0 15.0 14.3 4.3 9.1 15.0 15.0 15.0 15.0 14.5 7.8 6.5 8.4 15.0 15.0 15.0 15.0 15.0 15.0 15.0 15.0 5.5
0.9 0.6 0.2 0.3 0.6 0.9 3.7 5.4 3.1 0.8 0.6 1.7 13.0 15.0 15.0 15.0 15.0 15.0 15.0 15.0 13.8 15.0 7.4 7.6 10.7 15.0 15.0 12.4 14.8 4.1 4.1 15.0 7.7 6.0 14.3 15.0 15.0 15.0 4.4 4.1 4.1 4.1 4.1 4.5
13.4 14.1 15.0 14.8 1.0 1.1 0.4 0.5 0.4 0.7 0.6 1.5 15.0 15.0 15.0 15.0 12.8 4.1 4.1 15.0 15.0 15.0 15.0 15.0 10.9 15.0 15.0 15.0 15.0 15.0 4.1 4.2 12.9 5.5 7.0 4.1 6.9 15.0 4.1 4.1 4.1 4.1 4.1 4.5
0.2 0.2 0.7 2.0 12.0 14.1 3.8 1.7 1.2 0.8 5.4 15.0 15.0 12.3 9.7 4.1 4.1 3.2 4.1 15.0 13.4 15.0 15.0 15.0 15.0 15.0 15.0 15.0 11.1 15.0 14.8 10.3 10.7 10.5 12.5 7.9 4.1 4.3 8.8 6.4 4.1 4.1 4.1 4.1
0.5 0.4 1.5 2.2 13.1 11.2 4.4 4.0 14.0 15.0 9.2 15.0 15.0 15.0 6.4 4.5 5.8 5.3 14.8 14.0 13.9 12.3 15.0 15.0 15.0 15.0 15.0 15.0 2.0 15.0 15.0 6.2 4.1 4.0 4.1 5.2 5.0 3.9 2.5 0.9 1.0 0.9 2.5 4.1
1.3 2.6 4.8 13.0 4.1 7.7 13.0 14.4 15.0 15.0 12.9 15.0 15.0 4.5 13.8 15.0 12.7 4.7 4.1 14.2 15.0 15.0 15.0 15.0 15.0 15.0 15.0 4.5 12.2 5.6 12.2 4.1 4.4 4.0 3.0 2.6 3.2 3.4 2.4 1.6 0.7 0.9 1.0 2.0
4.6 5.7 5.5 11.4 15.0 4.8 8.3 15.0 15.0 15.0 15.0 15.0 13.6 11.4 15.0 15.0 15.0 15.0 15.0 8.9 15.0 15.0 15.0 15.0 15.0 12.0 15.0 4.1 13.5 4.6 7.3 11.1 6.4 6.5 9.7 8.7 4.1 3.7 3.3 2.8 3.0 0.8 0.2 0.6
7.9 14.7 12.6 15.0 15.0 11.2 11.9 15.0 15.0 15.0 15.0 8.7 5.0 5.3 12.1 4.8 12.3 15.0 15.0 15.0 11.3 7.3 15.0 15.0 15.0 15.0 15.0 14.1 3.8 3.2 4.0 4.1 4.2 4.1 3.2 3.6 4.0 4.0 3.3 3.3 2.6 2.3 3.2 2.7
4.1 14.8 15.0 15.0 15.0 15.0 15.0 15.0 15.0 15.0 13.2 14.9 7.8 15.0 14.9 4.1 8.5 6.5 7.6 4.4 7.2 14.1 8.1 12.3 4.1 4.1 15.0 15.0 15.0 6.0 3.9 3.2 3.1 2.2 3.0 2.4 2.1 1.4 2.5 3.1 3.7 3.9 2.7 2.9
15.0 15.0 15.0 15.0 15.0 15.0 15.0 15.0 15.0 15.0 15.0 13.5 15.0 15.0 15.0 15.0 15.0 15.0 11.0 15.0 9.0 12.6 15.0 13.7 13.3 5.2 4.1 4.0 3.6 2.9 2.9 3.8 3.8 2.2 2.3 1.6 1.8 2.7 7.8 2.2 4.0 4.1 3.5 3.5
15.0 15.0 15.0 15.0 15.0 15.0 15.0 15.0 6.7 4.1 4.1 4.1 4.0 3.6 4.1 5.9 3.7 2.6 2.9 0.8 1.7 3.5 3.5 2.5 2.2 3.0 2.7 1.1 0.7 0.6 1.1 0.7 0.9 2.3 0.7 0.2 0.6 1.1 3.3 4.1 4.1 4.1 4.0 2.8
15.0 15.0 13.4 4.8 4.8 4.9 4.4 7.1 4.5 4.1 4.1 4.2 12.7 11.8 13.4 4.5 3.4 3.4 2.1 1.7 1.9 1.2 1.5 3.6 4.5 3.7 3.4 3.5 4.0 3.6 1.9 0.9 1.3 0.2 0.4 0.6 1.0 1.7 0.5 0.1 0.3 1.3 2.6 1.9